Simultaneous Nadir Overpasses (SNOs) Predictions

Prediction of SNOs between AQUA and LANDSAT-8 Satellite Orbit:

Table of predicted SNOs for the next 14.0 days since TLE Epoch: 10/12/2024
Index Date (AQUA) Time (AQUA) Lat,Lon (AQUA) SZA (AQUA ) Date (LANDSAT-8) Time (LANDSAT-8) Lat,Lon (LANDSAT-8) SZA (LANDSAT-8 ) Distance(km) Time Diff (sec)
1 10/18/2024 19:07:42 -73.67, 78.22 96.23 10/18/2024 19:06:36 -73.62, 75.69 96.38 79.28 66
2 10/18/2024 19:57:06 73.82,-114.45 83.92 10/18/2024 19:55:58 73.79,-116.30 83.82 57.58 68
3 10/18/2024 20:46:31 -74.10, 52.58 95.82 10/18/2024 20:45:19 -74.14, 52.12 95.80 14.70 72
4 10/18/2024 21:35:54 74.20,-139.99 84.29 10/18/2024 21:34:43 74.21,-140.08 84.29 3.14 71
5 10/18/2024 22:25:14 -74.21, 27.63 95.68 10/18/2024 22:24:10 -74.25, 27.64 95.66 3.48 64
6 10/18/2024 23:14:35 74.21,-164.69 84.33 10/18/2024 23:13:36 74.21,-164.80 84.31 3.40 59
7 10/19/2024 00:03:55 -74.23, 2.93 95.65 10/19/2024 00:03:03 -74.25, 2.92 95.64 1.90 52
8 10/19/2024 00:53:16 74.23, 170.60 84.37 10/19/2024 00:52:28 74.26, 170.60 84.39 3.73 48
9 10/19/2024 01:42:36 -74.24, -21.77 95.61 10/19/2024 01:41:56 -74.25, -21.79 95.61 0.73 40
10 10/19/2024 02:31:57 74.24, 145.90 84.41 10/19/2024 02:31:21 74.26, 145.88 84.42 2.17 36
11 10/19/2024 03:21:16 -74.26, -46.48 95.57 10/19/2024 03:20:48 -74.25, -46.51 95.59 1.77 28
12 10/19/2024 04:10:37 74.26, 121.20 84.45 10/19/2024 04:10:13 74.26, 121.16 84.44 1.19 24
13 10/19/2024 04:59:57 -74.27, -71.18 95.53 10/19/2024 04:59:40 -74.30, -71.11 95.51 3.36 17
14 10/19/2024 05:49:18 74.27, 96.49 84.48 10/19/2024 05:49:06 74.26, 96.44 84.47 2.07 12
15 10/19/2024 06:38:38 -74.29, -95.89 95.49 10/19/2024 06:38:33 -74.30, -95.83 95.48 1.87 5
16 10/19/2024 07:27:59 74.29, 71.78 84.52 10/19/2024 07:27:58 74.31, 71.84 84.55 3.10 1
17 10/19/2024 08:17:19 -74.31,-120.59 95.45 10/19/2024 08:17:26 -74.30,-120.55 95.46 1.37 7
18 10/19/2024 09:06:40 74.30, 47.08 84.56 10/19/2024 09:06:51 74.31, 47.12 84.57 1.50 11
19 10/19/2024 09:56:00 -74.32,-145.30 95.41 10/19/2024 09:56:19 -74.30,-145.27 95.43 2.61 19
20 10/19/2024 10:45:21 74.32, 22.37 84.60 10/19/2024 10:45:44 74.31, 22.40 84.60 1.27 23
21 10/19/2024 11:34:40 -74.29,-169.88 95.42 10/19/2024 11:35:12 -74.30,-170.00 95.41 3.67 32
22 10/19/2024 12:24:02 74.34, -2.34 84.64 10/19/2024 12:24:37 74.31, -2.32 84.62 2.84 35
23 10/19/2024 13:13:22 -74.35, 165.29 95.33 10/19/2024 13:14:04 -74.35, 165.41 95.33 3.58 42
24 10/19/2024 14:02:42 74.30, -26.92 84.64 10/19/2024 14:03:30 74.31, -27.04 84.65 3.83 48
25 10/19/2024 14:52:02 -74.32, 140.70 95.34 10/19/2024 14:52:57 -74.35, 140.68 95.30 3.45 55
26 10/19/2024 15:41:24 74.37, -51.75 84.72 10/19/2024 15:42:22 74.36, -51.64 84.73 3.44 58
27 10/19/2024 16:30:43 -74.34, 115.99 95.30 10/19/2024 16:31:50 -74.35, 115.96 95.28 1.79 67
28 10/19/2024 17:20:04 74.34, -76.34 84.72 10/19/2024 17:21:15 74.36, -76.37 84.75 3.00 71
29 10/19/2024 18:09:29 -74.61, 90.66 95.03 10/19/2024 18:10:39 -74.55, 91.73 95.03 32.43 70
30 10/19/2024 18:58:53 74.76,-102.07 85.13 10/19/2024 19:00:01 74.72,-100.21 85.16 54.62 68
31 10/19/2024 19:48:19 -75.08, 64.76 94.57 10/19/2024 19:49:23 -75.01, 68.17 94.51 98.11 64



Historial Predications of SNOs between AQUA and LANDSAT-8
